Location: Newark
(49.8969°N, 3.3422°E)
Time: 00:28:13
(UTC+00:00)

Vanguard 1 Rocket - Pass Details

Date: 24 January 2020
Orbit: 650 x 4226 km, 34.3° (Epoch: 23 February)

Event Time Altitude Azimuth Distance (km) Brightness Sun altitude
Rises 13:24:49 0° 262° (W) 5,267 11.7 18.3°
Reaches altitude 10° 13:27:55 10° 255° (WSW) 4,659 11.6 18.1°
Maximum altitude 13:40:52 42° 191° (S) 4,020 12.0 17.2°
Drops below altitude 10° 14:01:53 10° 131° (SE) 7,318 12.2 15.7°
Sets 14:08:30 0° 126° (SE) 8,462 12.4 15.1°
